Weather History for KHON - December, 2012

Change the Weather History Date:

Tuesday, December 4, 2012

  Actual Average Record
Temperature  
Mean Temperature 27 °F 23 °F  
Max Temperature 37 °F 32 °F 63 °F (1888)
Min Temperature 17 °F 13 °F -32 °F (1886)
Degree Days  
Heating Degree Days 38 42  
Month to date heating degree days 107 166  
Since 1 July heating degree days 1793 1868  
Cooling Degree Days 0 0  
Month to date cooling degree days 0 0  
Year to date cooling degree days 1083 742  
Moisture  
Dew Point 18 °F    
Average Humidity 62    
Maximum Humidity 81    
Minimum Humidity 35    
Precipitation  
Precipitation 0.00 in 0.01 in 0.49 in (1960)
Month to date precipitation T 0.07  
Year to date precipitation 18.54 22.45  
Snow  
Snow 0.00 in 0.30 in 3.00 in (2013)
Month to date snowfall 0.0 1.0  
Since 1 July snowfall 1.0 9.3  
Snow Depth 0.00 in    
Sea Level Pressure  
Sea Level Pressure 30.25 in    
Wind  
Wind Speed 6 mph (NNE)    
Max Wind Speed 14 mph    
Max Gust Speed 17 mph    
Visibility 10 miles    
Events      
T = Trace of Precipitation, MM = Missing Value Source: NWS Daily Summary

Daily Weather History Graph

Daily Weather History Graph

Search for Another Location

Airport or City:

Trip Planner

Search our weather history database for the weather conditions in past years. The results will help you decide how hot, cold, wet, or windy it might be!

Date:

Astronomy

Dec. 04, 2012 Rise Set
Actual Time 7:52 AM CST 4:53 PM CST
Civil Twilight 7:19 AM CST 5:26 PM CST
Nautical Twilight 6:43 AM CST 6:03 PM CST
Astronomical Twilight 6:08 AM CST 6:38 PM CST
Moon 10:51 PM CST (12/4) 11:39 AM CST (12/4)
Length of Visible Light 10h 07m
Length of Day
9h 01m
Waning Gibbous, 69% of the Moon is Illuminated
Dec 4
Waning Gibbous
Dec 6
Last Quarter
Dec 13
New
Dec 19
First Quarter
Dec 28
Full

Hourly Weather History & Observations

Time (CST) Temp. Windchill Dew Point Humidity Pressure Visibility Wind Dir Wind Speed Gust Speed Precip Events Conditions
12:55 AM 35.1 °F 27.9 °F 19.9 °F 54% 30.05 in 10.0 mi WSW 9.2 mph - N/A   Clear
1:55 AM 34.0 °F 26.6 °F 19.0 °F 54% 30.06 in 10.0 mi WSW 9.2 mph - N/A   Clear
2:55 AM 32.0 °F 26.4 °F 19.0 °F 59% 30.09 in 10.0 mi West 5.8 mph - N/A   Clear
3:55 AM 23.0 °F - 17.1 °F 78% 30.12 in 10.0 mi Calm Calm - N/A   Clear
4:55 AM 18.0 °F - 12.9 °F 81% 30.15 in 10.0 mi Calm Calm - N/A   Clear
5:55 AM 19.4 °F 12.8 °F 14.0 °F 80% 30.11 in 10.0 mi NW 4.6 mph - N/A   Clear
6:55 AM 19.9 °F 11.1 °F 15.1 °F 81% 30.19 in 10.0 mi NW 6.9 mph - N/A   Clear
7:55 AM 21.0 °F 12.4 °F 16.0 °F 81% 30.23 in 10.0 mi NW 6.9 mph - N/A   Clear
8:55 AM 26.1 °F 18.4 °F 19.9 °F 78% 30.27 in 10.0 mi NNW 6.9 mph - N/A   Clear
9:55 AM 30.0 °F 23.2 °F 21.0 °F 69% 30.28 in 10.0 mi North 6.9 mph - N/A   Clear
10:55 AM 32.0 °F 23.6 °F 19.0 °F 59% 30.32 in 10.0 mi NNE 10.4 mph - N/A   Clear
11:55 AM 34.0 °F 28.0 °F 18.0 °F 52% 30.32 in 10.0 mi NNW 6.9 mph - N/A   Clear
12:55 PM 35.1 °F 29.3 °F 19.0 °F 52% 30.30 in 10.0 mi North 6.9 mph - N/A   Clear
1:55 PM 37.0 °F 32.4 °F 19.0 °F 48% 30.29 in 10.0 mi NNE 5.8 mph - N/A   Clear
2:55 PM 37.0 °F 34.5 °F 19.0 °F 48% 30.30 in 10.0 mi NNE 3.5 mph - N/A   Clear
3:55 PM 35.1 °F 32.2 °F 18.0 °F 50% 30.32 in 10.0 mi NNE 3.5 mph - N/A   Clear
4:55 PM 30.9 °F 26.2 °F 18.0 °F 59% 30.32 in 10.0 mi NE 4.6 mph - N/A   Clear
5:55 PM 28.0 °F - 17.1 °F 63% 30.32 in 10.0 mi Calm Calm - N/A   Clear
6:55 PM 25.0 °F 20.7 °F 15.1 °F 66% 30.32 in 10.0 mi ENE 3.5 mph - N/A   Clear
7:55 PM 24.1 °F 16.0 °F 15.1 °F 69% 30.32 in 10.0 mi NE 6.9 mph - N/A   Clear
8:55 PM 23.0 °F 17.0 °F 15.1 °F 72% 30.31 in 10.0 mi ENE 4.6 mph - N/A   Clear
9:55 PM 25.0 °F 17.1 °F 18.0 °F 75% 30.32 in 10.0 mi East 6.9 mph - N/A   Clear
10:55 PM 27.0 °F 16.7 °F 19.0 °F 72% 30.31 in 10.0 mi ESE 11.5 mph - N/A   Clear
11:55 PM 28.0 °F 18.1 °F 18.0 °F 66% 30.30 in 10.0 mi ESE 11.5 mph - N/A   Clear